Hourly Weather Smorawina

Today, 6 May, Thursday

Time Temperature Precipitation Wind Pressure Humidity
00:00 +1°C° 0 mm 8 mps 740 mmHg 77%
01:00 +1°C° 0 mm 8 mps 740 mmHg 74%
02:00 +1°C° 0.3 mm 9 mps 740 mmHg 77%
03:00 +1°C° 0.3 mm 10 mps 740 mmHg 79%
04:00 0°C° 0.3 mm 10 mps 740 mmHg 81%
05:00 +1°C° 0 mm 10 mps 741 mmHg 78%
06:00 +1°C° 0 mm 9 mps 742 mmHg 75%
07:00 +2°C° 0 mm 9 mps 742 mmHg 72%
08:00 +3°C° 0 mm 9 mps 742 mmHg 63%
09:00 +5°C° 0 mm 9 mps 743 mmHg 55%
10:00 +7°C° 0 mm 9 mps 743 mmHg 47%
11:00 +9°C° 0 mm 8 mps 743 mmHg 44%
12:00 +9°C° 0 mm 8 mps 743 mmHg 42%
13:00 +10°C° 0 mm 7 mps 743 mmHg 40%
14:00 +10°C° 0.1 mm 7 mps 742 mmHg 47%
15:00 +9°C° 0.1 mm 6 mps 742 mmHg 53%
16:00 +9°C° 0.1 mm 6 mps 742 mmHg 60%
17:00 +8°C° 0.2 mm 5 mps 742 mmHg 67%
18:00 +7°C° 0.2 mm 4 mps 742 mmHg 74%
19:00 +7°C° 0.2 mm 3 mps 742 mmHg 81%
20:00 +5°C° 0.1 mm 3 mps 742 mmHg 84%
21:00 +4°C° 0.1 mm 3 mps 742 mmHg 87%
22:00 +4°C° 0.1 mm 2 mps 742 mmHg 90%
23:00 +4°C° 0 mm 2 mps 742 mmHg 91%

Tomorrow, 7 May, Friday

Time Temperature Precipitation Wind Pressure Humidity
00:00 +2°C° 0 mm 3 mps 742 mmHg 93%
01:00 +1°C° 0 mm 3 mps 743 mmHg 94%
02:00 +1°C° 0 mm 3 mps 743 mmHg 94%
03:00 0°C° 0 mm 3 mps 743 mmHg 94%
04:00 0°C° 0 mm 3 mps 743 mmHg 95%
05:00 +2°C° 0 mm 3 mps 744 mmHg 89%
06:00 +3°C° 0 mm 4 mps 745 mmHg 84%
07:00 +3°C° 0 mm 5 mps 745 mmHg 79%
08:00 +5°C° 0 mm 5 mps 746 mmHg 69%
09:00 +7°C° 0 mm 5 mps 746 mmHg 60%
10:00 +8°C° 0 mm 6 mps 747 mmHg 51%
11:00 +9°C° 0 mm 5 mps 747 mmHg 47%
12:00 +9°C° 0 mm 5 mps 747 mmHg 43%
13:00 +10°C° 0 mm 5 mps 747 mmHg 39%
14:00 +10°C° 0 mm 5 mps 747 mmHg 39%
15:00 +10°C° 0 mm 5 mps 747 mmHg 40%
16:00 +12°C° 0 mm 5 mps 748 mmHg 40%
17:00 +10°C° 0 mm 4 mps 748 mmHg 48%
18:00 +8°C° 0 mm 4 mps 748 mmHg 56%
19:00 +8°C° 0 mm 3 mps 748 mmHg 64%
20:00 +7°C° 0 mm 3 mps 748 mmHg 69%
21:00 +4°C° 0 mm 3 mps 748 mmHg 75%
22:00 +3°C° 0 mm 3 mps 748 mmHg 81%
23:00 +3°C° 0 mm 3 mps 748 mmHg 82%

Day after tomorrow, 8 May, Saturday

Time Temperature Precipitation Wind Pressure Humidity
00:00 +3°C° 0 mm 3 mps 748 mmHg 83%
01:00 +2°C° 0 mm 3 mps 748 mmHg 84%
02:00 +2°C° 0 mm 3 mps 748 mmHg 81%
03:00 +3°C° 0 mm 3 mps 748 mmHg 79%
04:00 +3°C° 0 mm 3 mps 747 mmHg 76%
05:00 +4°C° 0 mm 3 mps 747 mmHg 73%
06:00 +5°C° 0 mm 3 mps 747 mmHg 70%
07:00 +7°C° 0 mm 3 mps 746 mmHg 66%
08:00 +8°C° 0 mm 3 mps 746 mmHg 68%
09:00 +8°C° 0 mm 3 mps 746 mmHg 70%
10:00 +8°C° 0 mm 4 mps 745 mmHg 71%
11:00 +8°C° 0.2 mm 4 mps 745 mmHg 77%
12:00 +7°C° 0.2 mm 4 mps 744 mmHg 83%
13:00 +7°C° 0.2 mm 4 mps 744 mmHg 89%
14:00 +7°C° 0.5 mm 4 mps 743 mmHg 91%
15:00 +6°C° 0.5 mm 4 mps 743 mmHg 94%
16:00 +6°C° 0.5 mm 4 mps 743 mmHg 96%
17:00 +7°C° 0.3 mm 4 mps 742 mmHg 97%
18:00 +8°C° 0.3 mm 3 mps 742 mmHg 97%
19:00 +8°C° 0.3 mm 3 mps 741 mmHg 98%
20:00 +9°C° 0.4 mm 3 mps 741 mmHg 98%
21:00 +10°C° 0.4 mm 4 mps 741 mmHg 97%
22:00 +10°C° 0.4 mm 5 mps 740 mmHg 97%
23:00 +10°C° 1.1 mm 5 mps 740 mmHg 97%

9 May, Sunday

Time Temperature Precipitation Wind Pressure Humidity
00:00 +12°C° 1.1 mm 5 mps 740 mmHg 96%
01:00 +13°C° 1.1 mm 6 mps 740 mmHg 96%

10 May, Monday

Time Temperature Precipitation Wind Pressure Humidity

11 May, Tuesday

Time Temperature Precipitation Wind Pressure Humidity
Show more

We Need Your Consent

Meteoprog and our Service Providers may store and access personal data such as cookies, device identifiers or other similar technologies on your device and process such data to personalise content and ads, as well as provide social media features and to analyse the traffic.

  • Store and/or access information on your device

    Cookies, device identifiers or other information can be stored or accessed on your device for the purposes indicated above.

  • Personalised ads and content, ad and content measurement, audience insights, and products development

    Ads and content can be personalised based on a profile. More data can be added to better personalise ads and content. Ad and content performance can be measured. Insights about the audience who saw the ads and content can be derived. Such data can be used to develop or improve user’s experience, systems and software.

By clicking ‘I Agree’ you will allow the use of indicated cookies, device identifiers, web beacons or other similar technologies. Your settings can be changed in the browser on your device.

For certain purposes, legitimate interests may be relied on, rather than consent. You can read more about this in our Privacy and Cookie Policy.